User: anonymous   Login
Location: Unspecified
(0.0000°N, 0.0000°E)
Time: 16:39:42
(UTC+02:00)
Language:

Cosmos 1538 Rocket - Orbit

View from above orbital plane
View from above orbital plane
View from above satellite
View from above satellite

Ground track
Ground track

The orbit data is extracted from the following two-line orbital elements,

1 14760U 84019B   16209.47237772  .00000038  00000-0  22344-4 0  9997
2 14760  74.0443 357.5013 0028792 296.3796  93.6849 14.35784595696984
Epoch (UTC): 27 July 2016 11:20:13
Eccentricity: 0.0028792
inclination: 74.0443°
perigee height: 752 km
apogee height: 793 km
right ascension of ascending node: 357.5013°
argument of perigee: 296.3796°
revolutions per day: 14.35784595
mean anomaly at epoch: 93.6849°
orbit number at epoch: 69698

The dashed part of the orbit path shows where the satellite is in the earth's shadow,  

DLR